GFSNE_prec_precacc24_024.txt.gz
Total_Precipitation_Accumulation
0.02 0.02 0.02 0.01 0.01 0.02 0.05 0.11 0.25 0.21 0.03 0.00 0.00 0.00 0.00 0.00 0.03 0.09 0.15 0.13 0.08 0.07 0.07 0.09 0.11 0.11 0.10 0.07 0.05 0.02 0.00 0.00 0.01 0.05 0.10 0.17 0.14 0.10
0.03 0.02 0.01 0.02 0.03 0.05 0.09 0.12 0.13 0.21 0.14 0.00 0.00 0.00 0.00 0.00 0.01 0.03 0.03 0.06 0.05 0.04 0.05 0.06 0.06 0.06 0.08 0.06 0.05 0.07 0.04 0.00 0.00 0.00 0.05 0.10 0.13 0.13
0.03 0.02 0.02 0.01 0.02 0.03 0.03 0.02 0.01 0.03 0.07 0.01 0.00 0.00 0.00 0.00 0.00 0.00 0.00 0.02 0.05 0.03 0.03 0.04 0.06 0.04 0.04 0.06 0.04 0.03 0.04 0.04 0.01 0.01 0.02 0.08 0.14 0.11
0.01 0.01 0.01 0.00 0.00 0.00 0.00 0.00 0.00 0.00 0.01 0.01 0.00 0.00 0.00 0.00 0.00 0.00 0.01 0.00 0.02 0.05 0.08 0.05 0.11 0.15 0.07 0.02 0.03 0.03 0.01 0.01 0.02 0.01 0.01 0.03 0.08 0.15
0.00 0.00 0.00 0.00 0.00 0.00 0.00 0.00 0.00 0.01 0.03 0.06 0.02 0.00 0.00 0.00 0.01 0.01 0.01 0.02 0.03 0.04 0.08 0.12 0.15 0.12 0.17 0.09 0.02 0.01 0.01 0.01 0.00 0.00 0.02 0.03 0.02 0.06
0.00 0.00 0.00 0.00 0.00 0.00 0.01 0.01 0.03 0.05 0.04 0.03 0.02 0.01 0.00 0.00 0.02 0.03 0.03 0.04 0.03 0.02 0.05 0.09 0.14 0.11 0.10 0.15 0.11 0.04 0.01 0.00 0.01 0.00 0.01 0.04 0.03 0.04
0.00 0.00 0.00 0.00 0.00 0.01 0.02 0.03 0.03 0.04 0.05 0.05 0.05 0.04 0.04 0.04 0.05 0.05 0.04 0.03 0.02 0.03 0.03 0.04 0.06 0.11 0.08 0.09 0.15 0.12 0.05 0.01 0.01 0.03 0.04 0.04 0.05 0.08
0.00 0.00 0.00 0.00 0.00 0.00 0.01 0.01 0.03 0.07 0.11 0.08 0.06 0.06 0.05 0.05 0.07 0.10 0.11 0.06 0.03 0.03 0.05 0.02 0.02 0.04 0.05 0.05 0.07 0.15 0.13 0.04 0.01 0.03 0.06 0.07 0.04 0.07
0.00 0.00 0.00 0.00 0.00 0.00 0.00 0.01 0.02 0.03 0.09 0.11 0.10 0.06 0.06 0.06 0.05 0.05 0.05 0.05 0.04 0.02 0.04 0.02 0.00 0.01 0.00 0.01 0.01 0.07 0.14 0.16 0.04 0.03 0.06 0.13 0.10 0.05
0.00 0.00 0.00 0.00 0.00 0.01 0.08 0.07 0.02 0.01 0.01 0.02 0.05 0.05 0.05 0.05 0.05 0.05 0.04 0.04 0.02 0.00 0.00 0.01 0.00 0.01 0.00 0.00 0.00 0.01 0.09 0.21 0.11 0.03 0.09 0.07 0.20 0.19
0.00 0.00 0.00 0.01 0.01 0.07 0.10 0.03 0.01 0.00 0.01 0.01 0.03 0.04 0.05 0.06 0.07 0.14 0.11 0.10 0.07 0.02 0.02 0.04 0.01 0.01 0.01 0.00 0.00 0.00 0.02 0.12 0.21 0.09 0.11 0.05 0.08 0.21
0.00 0.00 0.00 0.03 0.10 0.08 0.09 0.06 0.04 0.03 0.02 0.01 0.01 0.01 0.01 0.01 0.02 0.06 0.08 0.16 0.15 0.11 0.07 0.08 0.04 0.03 0.03 0.01 0.00 0.00 0.00 0.01 0.16 0.22 0.15 0.10 0.02 0.11
0.00 0.00 0.01 0.06 0.08 0.05 0.05 0.06 0.12 0.06 0.02 0.02 0.02 0.02 0.02 0.03 0.04 0.04 0.06 0.08 0.09 0.06 0.03 0.03 0.04 0.05 0.04 0.10 0.06 0.02 0.01 0.00 0.02 0.16 0.19 0.09 0.02 0.11
0.02 0.02 0.03 0.06 0.04 0.03 0.05 0.09 0.06 0.02 0.03 0.04 0.05 0.04 0.04 0.03 0.03 0.04 0.07 0.09 0.08 0.02 0.01 0.03 0.09 0.07 0.11 0.09 0.11 0.05 0.02 0.02 0.01 0.04 0.15 0.12 0.02 0.11
0.02 0.03 0.04 0.03 0.02 0.03 0.06 0.05 0.04 0.06 0.07 0.07 0.07 0.06 0.06 0.07 0.08 0.12 0.10 0.07 0.05 0.02 0.01 0.03 0.13 0.05 0.05 0.06 0.02 0.03 0.04 0.03 0.02 0.01 0.06 0.10 0.05 0.06
0.00 0.01 0.01 0.01 0.02 0.05 0.03 0.03 0.05 0.05 0.07 0.09 0.08 0.07 0.08 0.11 0.16 0.20 0.19 0.21 0.17 0.07 0.03 0.02 0.04 0.08 0.08 0.05 0.03 0.02 0.02 0.05 0.05 0.01 0.03 0.05 0.03 0.03
0.01 0.01 0.00 0.01 0.01 0.02 0.01 0.01 0.02 0.02 0.03 0.05 0.06 0.07 0.08 0.10 0.12 0.16 0.21 0.28 0.31 0.34 0.39 0.16 0.06 0.08 0.07 0.08 0.12 0.03 0.02 0.01 0.03 0.04 0.02 0.02 0.01 0.01
0.00 0.01 0.01 0.02 0.01 0.01 0.01 0.01 0.01 0.03 0.03 0.04 0.05 0.06 0.07 0.08 0.09 0.07 0.10 0.15 0.18 0.15 0.16 0.26 0.30 0.16 0.17 0.10 0.07 0.15 0.13 0.03 0.02 0.03 0.02 0.03 0.02 0.02
0.00 0.01 0.01 0.01 0.01 0.00 0.00 0.01 0.02 0.03 0.02 0.03 0.05 0.05 0.06 0.05 0.05 0.03 0.03 0.04 0.04 0.05 0.06 0.07 0.23 0.37 0.42 0.28 0.11 0.06 0.20 0.19 0.06 0.04 0.03 0.02 0.02 0.04
0.01 0.01 0.01 0.01 0.01 0.00 0.00 0.00 0.00 0.01 0.00 0.01 0.03 0.04 0.05 0.04 0.04 0.03 0.03 0.02 0.02 0.03 0.03 0.01 0.03 0.03 0.11 0.40 0.29 0.04 0.02 0.17 0.14 0.10 0.08 0.07 0.04 0.02
0.01 0.01 0.01 0.01 0.00 0.00 0.00 0.00 0.01 0.01 0.00 0.00 0.01 0.03 0.03 0.04 0.03 0.03 0.02 0.01 0.01 0.00 0.00 0.00 0.00 0.00 0.01 0.03 0.11 0.06 0.01 0.01 0.02 0.09 0.15 0.07 0.05 0.05
0.01 0.01 0.01 0.01 0.01 0.01 0.01 0.01 0.00 0.00 0.01 0.00 0.00 0.00 0.01 0.02 0.04 0.03 0.01 0.01 0.01 0.00 0.00 0.00 0.00 0.01 0.05 0.05 0.19 0.13 0.02 0.02 0.00 0.00 0.00 0.02 0.05 0.08
0.01 0.01 0.01 0.01 0.01 0.01 0.01 0.01 0.00 0.00 0.00 0.00 0.00 0.00 0.00 0.01 0.01 0.02 0.01 0.00 0.00 0.00 0.00 0.01 0.01 0.03 0.08 0.03 0.07 0.13 0.04 0.03 0.03 0.01 0.01 0.00 0.00 0.00

GFSNE_prec_precacc24_027.txt.gz
Total_Precipitation_Accumulation
0.02 0.01 0.01 0.01 0.01 0.02 0.04 0.09 0.22 0.20 0.03 0.00 0.00 0.00 0.00 0.00 0.00 0.02 0.03 0.05 0.04 0.06 0.07 0.09 0.11 0.11 0.10 0.08 0.05 0.02 0.01 0.01 0.02 0.05 0.10 0.17 0.14 0.10
0.03 0.02 0.02 0.01 0.02 0.02 0.04 0.08 0.12 0.20 0.14 0.00 0.00 0.00 0.00 0.00 0.00 0.00 0.00 0.02 0.03 0.04 0.05 0.06 0.06 0.06 0.08 0.06 0.05 0.07 0.04 0.00 0.00 0.00 0.05 0.10 0.13 0.13
0.03 0.02 0.01 0.01 0.01 0.01 0.00 0.00 0.01 0.03 0.07 0.01 0.00 0.00 0.00 0.00 0.00 0.00 0.00 0.01 0.02 0.02 0.03 0.04 0.06 0.05 0.05 0.07 0.05 0.03 0.04 0.04 0.01 0.01 0.02 0.08 0.14 0.12
0.01 0.00 0.00 0.00 0.00 0.00 0.00 0.00 0.00 0.00 0.00 0.01 0.00 0.00 0.00 0.00 0.00 0.00 0.01 0.00 0.01 0.05 0.08 0.06 0.12 0.16 0.08 0.03 0.04 0.04 0.02 0.01 0.02 0.01 0.01 0.03 0.08 0.15
0.00 0.00 0.00 0.00 0.00 0.00 0.00 0.00 0.00 0.01 0.03 0.06 0.02 0.00 0.00 0.00 0.01 0.01 0.01 0.02 0.03 0.03 0.08 0.12 0.15 0.13 0.18 0.09 0.02 0.02 0.02 0.01 0.00 0.00 0.02 0.03 0.02 0.06
0.00 0.00 0.00 0.00 0.00 0.00 0.01 0.01 0.03 0.05 0.04 0.03 0.02 0.01 0.00 0.00 0.02 0.03 0.03 0.04 0.03 0.02 0.05 0.09 0.15 0.12 0.10 0.15 0.12 0.04 0.02 0.00 0.01 0.00 0.01 0.04 0.03 0.04
0.00 0.00 0.00 0.00 0.00 0.01 0.02 0.03 0.03 0.04 0.05 0.05 0.05 0.04 0.04 0.04 0.05 0.06 0.04 0.03 0.02 0.03 0.03 0.04 0.06 0.11 0.10 0.12 0.15 0.12 0.06 0.01 0.01 0.03 0.04 0.04 0.05 0.08
0.00 0.00 0.00 0.00 0.00 0.00 0.00 0.01 0.03 0.07 0.11 0.08 0.06 0.06 0.05 0.05 0.08 0.10 0.11 0.06 0.03 0.03 0.05 0.02 0.02 0.04 0.06 0.12 0.12 0.17 0.16 0.05 0.01 0.03 0.06 0.07 0.04 0.07
0.00 0.00 0.00 0.00 0.00 0.00 0.00 0.01 0.02 0.03 0.09 0.11 0.10 0.06 0.07 0.06 0.05 0.05 0.05 0.05 0.04 0.02 0.04 0.02 0.00 0.01 0.00 0.01 0.01 0.07 0.14 0.16 0.04 0.03 0.06 0.14 0.11 0.05
0.00 0.00 0.00 0.00 0.00 0.01 0.08 0.07 0.02 0.01 0.01 0.02 0.05 0.05 0.05 0.05 0.05 0.05 0.04 0.04 0.02 0.00 0.00 0.01 0.00 0.01 0.00 0.00 0.00 0.01 0.09 0.21 0.11 0.03 0.09 0.08 0.23 0.19
0.00 0.00 0.00 0.01 0.01 0.07 0.09 0.03 0.01 0.00 0.01 0.01 0.02 0.03 0.04 0.05 0.06 0.13 0.11 0.12 0.08 0.02 0.02 0.04 0.01 0.01 0.01 0.00 0.00 0.00 0.02 0.12 0.21 0.09 0.11 0.09 0.14 0.23
0.00 0.00 0.00 0.01 0.05 0.07 0.08 0.05 0.03 0.03 0.02 0.01 0.01 0.01 0.01 0.01 0.02 0.06 0.08 0.16 0.16 0.14 0.07 0.08 0.04 0.04 0.04 0.01 0.00 0.00 0.00 0.01 0.16 0.22 0.19 0.18 0.10 0.17
0.00 0.00 0.00 0.02 0.04 0.04 0.05 0.06 0.12 0.06 0.02 0.02 0.02 0.02 0.02 0.03 0.04 0.04 0.06 0.09 0.15 0.11 0.03 0.04 0.04 0.05 0.04 0.09 0.08 0.11 0.03 0.00 0.02 0.16 0.27 0.24 0.08 0.21
0.01 0.01 0.01 0.02 0.02 0.02 0.04 0.06 0.04 0.02 0.03 0.04 0.04 0.03 0.03 0.03 0.03 0.03 0.06 0.09 0.10 0.08 0.02 0.02 0.05 0.07 0.11 0.09 0.16 0.12 0.03 0.03 0.01 0.04 0.23 0.25 0.08 0.19
0.01 0.02 0.01 0.00 0.01 0.01 0.02 0.03 0.02 0.03 0.03 0.04 0.05 0.05 0.06 0.07 0.08 0.11 0.10 0.07 0.04 0.01 0.00 0.02 0.08 0.03 0.04 0.05 0.02 0.03 0.04 0.05 0.08 0.03 0.16 0.23 0.15 0.19
0.00 0.00 0.00 0.00 0.00 0.02 0.01 0.02 0.03 0.03 0.06 0.07 0.07 0.07 0.08 0.10 0.15 0.19 0.18 0.20 0.15 0.07 0.04 0.03 0.04 0.07 0.07 0.04 0.03 0.02 0.02 0.05 0.07 0.03 0.10 0.22 0.19 0.24
0.00 0.00 0.00 0.00 0.00 0.00 0.01 0.01 0.01 0.01 0.03 0.04 0.06 0.06 0.08 0.09 0.12 0.15 0.20 0.28 0.30 0.34 0.41 0.20 0.09 0.09 0.07 0.08 0.12 0.03 0.02 0.01 0.03 0.05 0.02 0.08 0.13 0.16
0.00 0.00 0.01 0.01 0.01 0.00 0.00 0.00 0.00 0.02 0.02 0.03 0.04 0.06 0.07 0.07 0.08 0.07 0.09 0.13 0.17 0.14 0.16 0.26 0.31 0.17 0.17 0.10 0.07 0.15 0.13 0.03 0.02 0.03 0.02 0.04 0.04 0.05
0.00 0.01 0.01 0.01 0.01 0.00 0.00 0.00 0.01 0.01 0.02 0.03 0.04 0.05 0.05 0.05 0.04 0.03 0.03 0.04 0.04 0.04 0.03 0.04 0.20 0.36 0.42 0.30 0.11 0.06 0.19 0.19 0.06 0.04 0.03 0.02 0.02 0.05
0.01 0.01 0.01 0.01 0.01 0.00 0.00 0.00 0.00 0.00 0.00 0.01 0.02 0.03 0.04 0.03 0.03 0.03 0.03 0.02 0.02 0.02 0.01 0.01 0.03 0.03 0.10 0.40 0.33 0.06 0.02 0.17 0.15 0.10 0.07 0.06 0.04 0.01
0.01 0.01 0.01 0.01 0.00 0.00 0.00 0.00 0.01 0.00 0.00 0.00 0.01 0.02 0.02 0.03 0.02 0.02 0.02 0.01 0.00 0.00 0.00 0.00 0.00 0.00 0.01 0.03 0.13 0.08 0.01 0.02 0.05 0.09 0.17 0.07 0.04 0.02
0.01 0.01 0.01 0.01 0.01 0.01 0.01 0.01 0.00 0.00 0.01 0.00 0.00 0.00 0.01 0.02 0.03 0.02 0.01 0.00 0.01 0.00 0.00 0.00 0.00 0.02 0.08 0.09 0.21 0.14 0.02 0.02 0.00 0.00 0.03 0.03 0.05 0.07
0.01 0.01 0.01 0.01 0.01 0.01 0.01 0.01 0.00 0.00 0.00 0.00 0.00 0.00 0.00 0.01 0.01 0.01 0.01 0.00 0.00 0.00 0.00 0.00 0.01 0.03 0.09 0.04 0.09 0.15 0.04 0.03 0.03 0.01 0.01 0.00 0.00 0.00

GFSNE_prec_precacc24_030.txt.gz
Total_Precipitation_Accumulation
0.02 0.01 0.01 0.01 0.01 0.01 0.02 0.03 0.13 0.10 0.02 0.00 0.00 0.00 0.00 0.00 0.00 0.00 0.00 0.00 0.02 0.02 0.03 0.04 0.07 0.08 0.09 0.07 0.05 0.02 0.01 0.01 0.02 0.05 0.11 0.18 0.15 0.10
0.03 0.02 0.01 0.01 0.02 0.01 0.00 0.00 0.01 0.05 0.06 0.00 0.00 0.00 0.00 0.00 0.00 0.00 0.00 0.00 0.00 0.02 0.04 0.05 0.05 0.06 0.07 0.06 0.05 0.07 0.05 0.01 0.01 0.01 0.06 0.11 0.13 0.14
0.03 0.02 0.01 0.01 0.01 0.01 0.00 0.00 0.00 0.01 0.02 0.00 0.00 0.00 0.00 0.00 0.00 0.00 0.00 0.00 0.01 0.01 0.02 0.04 0.06 0.05 0.05 0.07 0.05 0.04 0.05 0.05 0.01 0.01 0.02 0.08 0.14 0.12
0.01 0.00 0.00 0.00 0.00 0.00 0.00 0.00 0.00 0.00 0.00 0.00 0.00 0.00 0.00 0.00 0.00 0.00 0.01 0.00 0.00 0.03 0.04 0.05 0.12 0.16 0.08 0.03 0.04 0.04 0.02 0.01 0.02 0.01 0.01 0.03 0.08 0.15
0.00 0.00 0.00 0.00 0.00 0.00 0.00 0.00 0.00 0.01 0.03 0.06 0.02 0.00 0.00 0.00 0.01 0.01 0.01 0.02 0.02 0.03 0.06 0.10 0.14 0.13 0.18 0.09 0.02 0.02 0.02 0.02 0.00 0.00 0.02 0.03 0.02 0.06
0.00 0.00 0.00 0.00 0.00 0.00 0.01 0.01 0.03 0.05 0.04 0.03 0.02 0.01 0.00 0.00 0.02 0.03 0.04 0.04 0.03 0.02 0.04 0.09 0.15 0.12 0.10 0.15 0.12 0.04 0.02 0.01 0.02 0.01 0.01 0.04 0.03 0.04
0.00 0.00 0.00 0.00 0.00 0.00 0.01 0.02 0.03 0.04 0.05 0.05 0.05 0.04 0.04 0.04 0.05 0.06 0.05 0.03 0.02 0.03 0.03 0.04 0.06 0.11 0.10 0.12 0.16 0.13 0.06 0.02 0.02 0.03 0.04 0.04 0.05 0.08
0.00 0.00 0.00 0.00 0.00 0.00 0.00 0.01 0.02 0.06 0.10 0.08 0.06 0.06 0.05 0.05 0.08 0.10 0.11 0.06 0.03 0.03 0.05 0.02 0.02 0.04 0.06 0.12 0.12 0.18 0.17 0.08 0.02 0.03 0.06 0.07 0.04 0.07
0.00 0.00 0.00 0.00 0.00 0.00 0.00 0.01 0.02 0.03 0.08 0.10 0.10 0.06 0.07 0.06 0.05 0.05 0.05 0.05 0.04 0.02 0.04 0.02 0.00 0.01 0.00 0.01 0.01 0.07 0.15 0.16 0.04 0.03 0.06 0.14 0.11 0.05
0.00 0.00 0.00 0.00 0.00 0.01 0.07 0.07 0.02 0.01 0.01 0.02 0.05 0.05 0.05 0.05 0.05 0.05 0.05 0.04 0.02 0.00 0.00 0.01 0.00 0.01 0.00 0.00 0.00 0.01 0.09 0.21 0.11 0.03 0.09 0.08 0.23 0.20
0.00 0.00 0.00 0.00 0.01 0.04 0.07 0.03 0.01 0.00 0.01 0.01 0.02 0.03 0.03 0.04 0.05 0.12 0.11 0.12 0.08 0.02 0.02 0.05 0.01 0.01 0.01 0.00 0.00 0.00 0.02 0.12 0.21 0.09 0.11 0.10 0.15 0.23
0.00 0.00 0.00 0.01 0.03 0.04 0.06 0.04 0.03 0.02 0.02 0.01 0.01 0.01 0.01 0.01 0.02 0.05 0.08 0.16 0.16 0.14 0.07 0.15 0.04 0.04 0.04 0.01 0.00 0.00 0.00 0.01 0.16 0.22 0.19 0.21 0.16 0.19
0.00 0.00 0.00 0.01 0.02 0.02 0.03 0.04 0.10 0.05 0.02 0.02 0.02 0.02 0.02 0.03 0.04 0.04 0.06 0.10 0.16 0.12 0.03 0.14 0.07 0.05 0.04 0.09 0.08 0.12 0.11 0.03 0.02 0.16 0.29 0.30 0.16 0.28
0.00 0.00 0.01 0.01 0.01 0.01 0.01 0.04 0.03 0.01 0.02 0.03 0.03 0.03 0.03 0.03 0.03 0.03 0.05 0.08 0.10 0.09 0.03 0.06 0.06 0.07 0.12 0.10 0.17 0.13 0.07 0.06 0.03 0.06 0.29 0.35 0.21 0.34
0.00 0.00 0.00 0.00 0.00 0.00 0.00 0.02 0.01 0.01 0.02 0.03 0.03 0.04 0.05 0.06 0.07 0.11 0.10 0.07 0.04 0.01 0.01 0.03 0.04 0.02 0.03 0.04 0.02 0.03 0.04 0.05 0.10 0.08 0.30 0.34 0.26 0.33
0.00 0.00 0.00 0.00 0.00 0.00 0.00 0.01 0.01 0.02 0.05 0.06 0.06 0.06 0.06 0.08 0.13 0.17 0.17 0.19 0.14 0.07 0.05 0.03 0.05 0.07 0.06 0.04 0.02 0.02 0.02 0.05 0.07 0.04 0.19 0.34 0.31 0.41
0.01 0.00 0.00 0.00 0.00 0.00 0.00 0.00 0.00 0.00 0.01 0.03 0.04 0.05 0.06 0.08 0.10 0.13 0.17 0.26 0.28 0.33 0.41 0.20 0.10 0.09 0.07 0.08 0.11 0.03 0.02 0.01 0.03 0.05 0.08 0.25 0.35 0.41
0.02 0.01 0.01 0.01 0.01 0.00 0.00 0.00 0.00 0.00 0.01 0.02 0.03 0.04 0.05 0.05 0.06 0.06 0.08 0.12 0.16 0.13 0.15 0.26 0.31 0.17 0.15 0.09 0.07 0.14 0.13 0.03 0.02 0.03 0.04 0.09 0.13 0.17
0.03 0.01 0.01 0.01 0.01 0.00 0.00 0.00 0.00 0.00 0.00 0.02 0.02 0.03 0.03 0.03 0.03 0.03 0.03 0.04 0.04 0.03 0.03 0.04 0.19 0.35 0.41 0.30 0.12 0.05 0.18 0.19 0.06 0.04 0.03 0.02 0.05 0.11
0.02 0.01 0.01 0.01 0.01 0.00 0.00 0.00 0.00 0.00 0.00 0.00 0.01 0.02 0.03 0.02 0.03 0.03 0.03 0.02 0.01 0.01 0.01 0.01 0.03 0.03 0.10 0.40 0.34 0.06 0.02 0.17 0.15 0.10 0.07 0.06 0.04 0.01
0.02 0.02 0.01 0.01 0.00 0.00 0.00 0.00 0.00 0.00 0.00 0.00 0.01 0.01 0.01 0.02 0.02 0.02 0.02 0.01 0.00 0.00 0.00 0.00 0.00 0.00 0.01 0.03 0.14 0.09 0.01 0.04 0.06 0.09 0.17 0.07 0.04 0.02
0.02 0.02 0.01 0.01 0.01 0.01 0.01 0.01 0.01 0.00 0.01 0.00 0.00 0.00 0.01 0.01 0.01 0.01 0.01 0.01 0.00 0.00 0.00 0.00 0.00 0.03 0.10 0.11 0.22 0.15 0.02 0.02 0.00 0.00 0.06 0.04 0.04 0.06
0.03 0.03 0.02 0.02 0.01 0.01 0.01 0.01 0.00 0.00 0.00 0.00 0.00 0.00 0.00 0.00 0.01 0.01 0.01 0.00 0.00 0.00 0.00 0.00 0.01 0.03 0.10 0.06 0.11 0.15 0.04 0.03 0.03 0.01 0.01 0.00 0.00 0.00

GFSNE_prec_precacc24_036.txt.gz
Total_Precipitation_Accumulation
0.02 0.01 0.01 0.01 0.01 0.01 0.01 0.02 0.08 0.05 0.01 0.00 0.00 0.00 0.00 0.00 0.00 0.00 0.00 0.00 0.00 0.02 0.01 0.00 0.00 0.00 0.01 0.03 0.04 0.03 0.01 0.01 0.02 0.05 0.11 0.19 0.16 0.12
0.03 0.02 0.01 0.01 0.02 0.01 0.00 0.00 0.01 0.04 0.03 0.00 0.00 0.00 0.00 0.00 0.00 0.00 0.00 0.00 0.00 0.00 0.00 0.00 0.00 0.00 0.00 0.00 0.01 0.04 0.05 0.01 0.01 0.01 0.06 0.11 0.16 0.16
0.03 0.02 0.01 0.01 0.01 0.01 0.00 0.00 0.00 0.00 0.00 0.00 0.00 0.00 0.00 0.00 0.00 0.00 0.00 0.00 0.01 0.00 0.00 0.00 0.00 0.00 0.00 0.01 0.02 0.01 0.03 0.05 0.02 0.02 0.04 0.10 0.17 0.16
0.01 0.00 0.00 0.00 0.00 0.00 0.00 0.00 0.00 0.00 0.00 0.00 0.00 0.00 0.00 0.00 0.00 0.00 0.00 0.00 0.00 0.03 0.03 0.02 0.02 0.01 0.01 0.01 0.02 0.03 0.02 0.01 0.02 0.02 0.02 0.04 0.09 0.17
0.00 0.00 0.00 0.00 0.00 0.00 0.00 0.00 0.00 0.00 0.01 0.03 0.01 0.00 0.00 0.00 0.01 0.01 0.01 0.02 0.02 0.03 0.06 0.05 0.04 0.03 0.02 0.00 0.01 0.02 0.02 0.02 0.01 0.01 0.03 0.03 0.03 0.07
0.00 0.00 0.00 0.00 0.00 0.00 0.00 0.00 0.00 0.01 0.01 0.01 0.01 0.01 0.00 0.00 0.02 0.03 0.04 0.04 0.03 0.02 0.04 0.08 0.10 0.05 0.01 0.00 0.04 0.04 0.02 0.02 0.03 0.03 0.03 0.05 0.04 0.05
0.00 0.00 0.00 0.00 0.00 0.00 0.00 0.00 0.01 0.02 0.02 0.02 0.03 0.02 0.02 0.03 0.05 0.06 0.05 0.03 0.02 0.03 0.03 0.04 0.06 0.08 0.05 0.04 0.09 0.10 0.06 0.02 0.02 0.04 0.05 0.06 0.06 0.10
0.00 0.00 0.00 0.00 0.00 0.00 0.00 0.00 0.00 0.03 0.07 0.06 0.05 0.04 0.03 0.04 0.06 0.10 0.11 0.07 0.04 0.03 0.05 0.02 0.02 0.04 0.04 0.10 0.10 0.17 0.16 0.08 0.02 0.03 0.06 0.07 0.04 0.07
0.00 0.00 0.00 0.00 0.00 0.00 0.00 0.00 0.01 0.02 0.05 0.06 0.07 0.05 0.06 0.06 0.05 0.05 0.05 0.07 0.06 0.02 0.04 0.02 0.00 0.01 0.00 0.01 0.01 0.07 0.15 0.17 0.05 0.03 0.06 0.14 0.11 0.05
0.00 0.00 0.00 0.00 0.00 0.00 0.03 0.03 0.01 0.00 0.01 0.02 0.03 0.04 0.04 0.04 0.05 0.06 0.08 0.06 0.02 0.00 0.00 0.02 0.00 0.01 0.00 0.00 0.00 0.01 0.09 0.21 0.11 0.03 0.09 0.08 0.23 0.20
0.00 0.00 0.00 0.00 0.00 0.01 0.02 0.01 0.00 0.00 0.00 0.01 0.02 0.02 0.01 0.01 0.02 0.08 0.09 0.11 0.08 0.02 0.02 0.06 0.01 0.01 0.01 0.00 0.00 0.00 0.02 0.12 0.21 0.09 0.11 0.10 0.15 0.24
0.00 0.00 0.00 0.00 0.01 0.01 0.01 0.01 0.01 0.02 0.01 0.01 0.01 0.01 0.01 0.01 0.02 0.04 0.06 0.13 0.13 0.14 0.07 0.17 0.04 0.07 0.09 0.01 0.00 0.00 0.00 0.01 0.16 0.23 0.20 0.21 0.17 0.20
0.00 0.00 0.00 0.00 0.00 0.00 0.00 0.00 0.03 0.01 0.01 0.01 0.02 0.01 0.02 0.02 0.04 0.04 0.06 0.10 0.16 0.13 0.03 0.20 0.11 0.07 0.10 0.10 0.08 0.12 0.12 0.05 0.04 0.17 0.30 0.31 0.17 0.30
0.00 0.00 0.00 0.00 0.00 0.00 0.00 0.00 0.00 0.00 0.01 0.02 0.02 0.02 0.02 0.02 0.02 0.03 0.05 0.08 0.10 0.10 0.03 0.10 0.16 0.12 0.18 0.12 0.17 0.13 0.08 0.08 0.03 0.07 0.30 0.38 0.24 0.42
0.00 0.00 0.01 0.02 0.02 0.01 0.00 0.00 0.00 0.00 0.01 0.02 0.02 0.02 0.02 0.03 0.04 0.09 0.09 0.07 0.04 0.01 0.01 0.03 0.06 0.03 0.07 0.08 0.04 0.03 0.04 0.05 0.10 0.09 0.37 0.43 0.34 0.46
0.01 0.01 0.01 0.03 0.04 0.03 0.01 0.01 0.00 0.00 0.01 0.02 0.02 0.03 0.03 0.04 0.08 0.11 0.13 0.16 0.12 0.06 0.04 0.01 0.03 0.05 0.05 0.03 0.03 0.02 0.02 0.05 0.07 0.04 0.25 0.56 0.52 0.64
0.05 0.07 0.08 0.07 0.06 0.05 0.04 0.03 0.01 0.00 0.00 0.01 0.02 0.02 0.02 0.03 0.04 0.06 0.10 0.19 0.25 0.30 0.39 0.18 0.08 0.06 0.05 0.06 0.10 0.03 0.02 0.01 0.03 0.05 0.23 0.62 0.74 0.72
0.10 0.06 0.03 0.03 0.03 0.02 0.03 0.02 0.02 0.01 0.00 0.00 0.01 0.01 0.02 0.01 0.02 0.03 0.04 0.07 0.12 0.11 0.14 0.25 0.30 0.12 0.10 0.06 0.06 0.13 0.12 0.03 0.01 0.02 0.14 0.32 0.37 0.47
0.14 0.03 0.02 0.03 0.03 0.03 0.04 0.03 0.01 0.00 0.00 0.00 0.01 0.01 0.01 0.01 0.02 0.02 0.02 0.02 0.02 0.02 0.02 0.03 0.18 0.33 0.38 0.29 0.12 0.05 0.18 0.17 0.05 0.03 0.03 0.05 0.16 0.26
0.07 0.04 0.02 0.02 0.03 0.04 0.04 0.04 0.02 0.00 0.00 0.00 0.00 0.01 0.01 0.01 0.02 0.01 0.02 0.01 0.01 0.00 0.00 0.01 0.03 0.02 0.11 0.40 0.35 0.07 0.03 0.19 0.16 0.10 0.07 0.05 0.04 0.03
0.03 0.04 0.03 0.04 0.04 0.04 0.04 0.04 0.02 0.01 0.00 0.00 0.00 0.01 0.01 0.01 0.01 0.01 0.01 0.01 0.00 0.00 0.00 0.00 0.00 0.02 0.06 0.07 0.16 0.10 0.03 0.09 0.09 0.10 0.18 0.06 0.04 0.02
0.03 0.04 0.03 0.04 0.04 0.04 0.03 0.04 0.03 0.02 0.01 0.00 0.00 0.00 0.00 0.01 0.01 0.00 0.01 0.01 0.00 0.00 0.00 0.00 0.00 0.03 0.13 0.15 0.24 0.16 0.03 0.03 0.01 0.01 0.07 0.05 0.05 0.07
0.11 0.10 0.07 0.06 0.06 0.06 0.07 0.06 0.04 0.02 0.01 0.00 0.00 0.00 0.00 0.01 0.00 0.00 0.00 0.00 0.00 0.00 0.00 0.00 0.01 0.03 0.11 0.10 0.17 0.19 0.05 0.04 0.03 0.01 0.02 0.02 0.01 0.01

GFSNE_prec_precacc24_042.txt.gz
Total_Precipitation_Accumulation
0.02 0.01 0.01 0.01 0.01 0.01 0.01 0.02 0.07 0.05 0.00 0.00 0.00 0.00 0.00 0.00 0.00 0.00 0.00 0.00 0.00 0.00 0.00 0.00 0.00 0.00 0.00 0.00 0.01 0.01 0.01 0.01 0.02 0.05 0.08 0.13 0.14 0.13
0.03 0.02 0.01 0.01 0.02 0.01 0.00 0.00 0.01 0.04 0.03 0.00 0.00 0.00 0.00 0.00 0.00 0.00 0.00 0.00 0.00 0.00 0.00 0.00 0.00 0.00 0.00 0.00 0.00 0.00 0.01 0.01 0.01 0.01 0.03 0.06 0.11 0.16
0.03 0.02 0.01 0.01 0.01 0.01 0.00 0.00 0.00 0.01 0.01 0.00 0.00 0.00 0.00 0.00 0.00 0.00 0.00 0.00 0.00 0.00 0.00 0.00 0.00 0.00 0.00 0.01 0.01 0.01 0.01 0.02 0.02 0.02 0.03 0.06 0.14 0.18
0.01 0.00 0.00 0.00 0.00 0.00 0.00 0.00 0.00 0.00 0.00 0.00 0.00 0.00 0.00 0.00 0.00 0.00 0.00 0.00 0.00 0.01 0.03 0.02 0.02 0.01 0.01 0.01 0.01 0.01 0.01 0.01 0.01 0.01 0.01 0.02 0.06 0.16
0.00 0.00 0.00 0.00 0.00 0.00 0.00 0.00 0.00 0.00 0.00 0.00 0.00 0.00 0.00 0.00 0.00 0.00 0.00 0.00 0.00 0.02 0.06 0.05 0.04 0.03 0.02 0.00 0.00 0.00 0.01 0.01 0.01 0.01 0.01 0.01 0.02 0.05
0.00 0.00 0.00 0.00 0.00 0.00 0.00 0.00 0.00 0.00 0.00 0.00 0.00 0.00 0.00 0.00 0.01 0.01 0.01 0.01 0.01 0.01 0.04 0.08 0.10 0.05 0.01 0.00 0.00 0.00 0.01 0.01 0.02 0.02 0.02 0.01 0.02 0.03
0.00 0.00 0.00 0.00 0.00 0.00 0.00 0.00 0.00 0.00 0.00 0.00 0.00 0.01 0.01 0.01 0.02 0.02 0.02 0.01 0.00 0.02 0.03 0.04 0.06 0.08 0.05 0.04 0.02 0.02 0.02 0.02 0.01 0.01 0.02 0.03 0.04 0.08
0.00 0.00 0.00 0.00 0.00 0.00 0.00 0.00 0.00 0.00 0.01 0.02 0.01 0.01 0.01 0.02 0.04 0.04 0.03 0.03 0.03 0.02 0.04 0.02 0.02 0.04 0.04 0.10 0.07 0.04 0.04 0.03 0.01 0.02 0.04 0.05 0.04 0.07
0.00 0.00 0.00 0.00 0.00 0.00 0.00 0.00 0.00 0.00 0.01 0.01 0.01 0.02 0.03 0.04 0.03 0.03 0.02 0.04 0.04 0.01 0.02 0.02 0.00 0.01 0.00 0.01 0.01 0.00 0.01 0.01 0.02 0.02 0.06 0.12 0.07 0.04
0.00 0.00 0.00 0.00 0.00 0.00 0.00 0.00 0.00 0.00 0.00 0.00 0.00 0.00 0.01 0.01 0.02 0.03 0.06 0.05 0.01 0.00 0.00 0.01 0.00 0.00 0.00 0.00 0.00 0.00 0.00 0.01 0.05 0.02 0.09 0.08 0.23 0.19
0.00 0.00 0.00 0.00 0.00 0.00 0.00 0.00 0.00 0.00 0.00 0.00 0.00 0.00 0.00 0.00 0.00 0.03 0.03 0.05 0.04 0.01 0.02 0.05 0.01 0.01 0.01 0.00 0.00 0.00 0.00 0.01 0.09 0.07 0.10 0.10 0.16 0.24
0.00 0.00 0.00 0.00 0.00 0.00 0.00 0.00 0.00 0.00 0.00 0.00 0.00 0.00 0.00 0.00 0.01 0.03 0.04 0.08 0.06 0.07 0.04 0.16 0.04 0.07 0.10 0.01 0.00 0.00 0.00 0.01 0.09 0.17 0.19 0.21 0.17 0.20
0.00 0.00 0.00 0.00 0.00 0.00 0.00 0.00 0.00 0.00 0.02 0.02 0.02 0.01 0.01 0.01 0.03 0.03 0.04 0.09 0.15 0.11 0.01 0.19 0.10 0.06 0.11 0.09 0.07 0.12 0.12 0.06 0.04 0.15 0.28 0.30 0.18 0.31
0.00 0.00 0.00 0.00 0.01 0.01 0.02 0.02 0.01 0.02 0.05 0.05 0.02 0.01 0.01 0.01 0.01 0.01 0.03 0.07 0.09 0.10 0.03 0.09 0.16 0.11 0.19 0.12 0.17 0.13 0.08 0.08 0.04 0.07 0.31 0.39 0.28 0.46
0.01 0.01 0.01 0.02 0.03 0.03 0.02 0.01 0.03 0.08 0.07 0.07 0.05 0.02 0.01 0.01 0.01 0.05 0.06 0.05 0.03 0.01 0.01 0.02 0.05 0.04 0.08 0.08 0.04 0.03 0.05 0.05 0.10 0.10 0.38 0.56 0.52 0.58
0.02 0.02 0.03 0.04 0.05 0.06 0.05 0.06 0.08 0.07 0.06 0.06 0.05 0.04 0.04 0.02 0.01 0.02 0.05 0.10 0.07 0.04 0.03 0.00 0.01 0.03 0.03 0.02 0.02 0.02 0.01 0.04 0.06 0.05 0.31 0.73 0.79 0.92
0.10 0.14 0.13 0.11 0.10 0.08 0.07 0.07 0.08 0.10 0.10 0.06 0.06 0.05 0.03 0.01 0.01 0.01 0.02 0.08 0.16 0.21 0.28 0.12 0.04 0.01 0.01 0.02 0.05 0.02 0.02 0.01 0.03 0.05 0.28 0.73 1.03 1.02
0.24 0.13 0.06 0.06 0.07 0.06 0.08 0.05 0.06 0.08 0.06 0.06 0.06 0.04 0.02 0.01 0.01 0.01 0.01 0.01 0.03 0.03 0.06 0.17 0.21 0.05 0.02 0.01 0.04 0.06 0.07 0.02 0.01 0.01 0.16 0.38 0.53 0.75
0.24 0.11 0.10 0.10 0.10 0.10 0.10 0.06 0.04 0.03 0.06 0.08 0.07 0.05 0.04 0.03 0.02 0.01 0.01 0.01 0.01 0.00 0.00 0.01 0.13 0.25 0.28 0.20 0.10 0.03 0.13 0.13 0.03 0.01 0.02 0.10 0.26 0.45
0.13 0.10 0.08 0.07 0.07 0.08 0.08 0.06 0.05 0.04 0.05 0.03 0.03 0.03 0.03 0.02 0.02 0.01 0.01 0.01 0.01 0.00 0.00 0.01 0.02 0.01 0.06 0.28 0.31 0.05 0.03 0.17 0.13 0.06 0.05 0.04 0.05 0.07
0.05 0.06 0.06 0.08 0.09 0.11 0.11 0.09 0.07 0.05 0.05 0.06 0.04 0.03 0.03 0.03 0.01 0.00 0.01 0.01 0.00 0.00 0.00 0.00 0.00 0.02 0.05 0.08 0.16 0.11 0.05 0.11 0.10 0.10 0.18 0.06 0.05 0.02
0.08 0.10 0.09 0.11 0.13 0.15 0.13 0.13 0.11 0.07 0.06 0.05 0.04 0.04 0.04 0.03 0.01 0.00 0.01 0.01 0.00 0.00 0.00 0.00 0.00 0.03 0.12 0.16 0.25 0.19 0.05 0.05 0.02 0.03 0.08 0.05 0.04 0.06
0.15 0.15 0.13 0.13 0.12 0.11 0.12 0.12 0.11 0.09 0.07 0.06 0.06 0.05 0.06 0.04 0.01 0.01 0.01 0.00 0.00 0.00 0.00 0.00 0.00 0.02 0.09 0.10 0.18 0.20 0.06 0.04 0.03 0.02 0.02 0.03 0.02 0.02

GFSNE_prec_precacc24_048.txt.gz
Total_Precipitation_Accumulation
0.00 0.00 0.00 0.00 0.00 0.01 0.01 0.01 0.06 0.03 0.00 0.00 0.00 0.00 0.00 0.00 0.00 0.00 0.00 0.00 0.00 0.00 0.00 0.00 0.00 0.00 0.00 0.00 0.01 0.01 0.01 0.01 0.01 0.01 0.03 0.03 0.03 0.05
0.00 0.01 0.01 0.00 0.01 0.01 0.00 0.00 0.01 0.02 0.02 0.00 0.00 0.00 0.00 0.00 0.00 0.00 0.00 0.00 0.00 0.00 0.00 0.00 0.00 0.00 0.00 0.00 0.00 0.00 0.01 0.01 0.01 0.01 0.01 0.02 0.05 0.07
0.01 0.04 0.03 0.01 0.01 0.00 0.00 0.00 0.00 0.00 0.00 0.00 0.00 0.00 0.00 0.00 0.00 0.00 0.00 0.00 0.00 0.00 0.00 0.00 0.00 0.00 0.00 0.01 0.01 0.01 0.01 0.01 0.02 0.03 0.03 0.04 0.06 0.09
0.17 0.09 0.02 0.00 0.00 0.00 0.00 0.00 0.00 0.00 0.00 0.00 0.00 0.00 0.00 0.00 0.00 0.00 0.00 0.00 0.00 0.00 0.00 0.00 0.00 0.01 0.01 0.01 0.01 0.01 0.01 0.01 0.01 0.01 0.02 0.02 0.03 0.04
0.04 0.00 0.00 0.00 0.00 0.00 0.00 0.00 0.00 0.00 0.00 0.00 0.00 0.00 0.00 0.00 0.00 0.00 0.00 0.00 0.00 0.00 0.00 0.00 0.00 0.01 0.01 0.00 0.00 0.00 0.01 0.01 0.01 0.01 0.01 0.01 0.02 0.02
0.00 0.00 0.00 0.00 0.00 0.00 0.00 0.00 0.00 0.00 0.00 0.00 0.00 0.00 0.00 0.00 0.00 0.00 0.00 0.00 0.00 0.00 0.00 0.00 0.01 0.01 0.00 0.00 0.00 0.00 0.01 0.01 0.02 0.02 0.02 0.01 0.01 0.01
0.00 0.00 0.00 0.00 0.00 0.00 0.00 0.00 0.00 0.00 0.00 0.00 0.00 0.00 0.00 0.00 0.00 0.00 0.00 0.00 0.00 0.00 0.00 0.00 0.00 0.00 0.01 0.03 0.01 0.01 0.02 0.02 0.01 0.01 0.02 0.02 0.02 0.02
0.00 0.00 0.00 0.00 0.00 0.00 0.00 0.00 0.00 0.00 0.00 0.00 0.00 0.00 0.00 0.00 0.01 0.00 0.00 0.00 0.01 0.00 0.00 0.00 0.00 0.00 0.00 0.07 0.05 0.03 0.04 0.03 0.00 0.00 0.01 0.02 0.02 0.02
0.00 0.00 0.00 0.00 0.00 0.00 0.00 0.00 0.00 0.00 0.00 0.00 0.00 0.00 0.00 0.01 0.01 0.00 0.00 0.01 0.01 0.00 0.00 0.00 0.00 0.00 0.00 0.01 0.01 0.00 0.01 0.01 0.01 0.01 0.00 0.01 0.00 0.00
0.00 0.00 0.00 0.00 0.00 0.00 0.00 0.00 0.00 0.00 0.00 0.01 0.01 0.00 0.00 0.00 0.01 0.01 0.04 0.03 0.00 0.00 0.00 0.01 0.00 0.00 0.00 0.00 0.00 0.00 0.00 0.00 0.00 0.00 0.00 0.01 0.02 0.00
0.00 0.00 0.00 0.00 0.00 0.00 0.00 0.00 0.00 0.01 0.02 0.02 0.02 0.02 0.01 0.00 0.00 0.02 0.02 0.03 0.02 0.00 0.00 0.02 0.00 0.00 0.00 0.00 0.00 0.00 0.00 0.00 0.00 0.00 0.01 0.05 0.08 0.03
0.00 0.00 0.00 0.00 0.00 0.00 0.00 0.00 0.02 0.01 0.03 0.05 0.06 0.04 0.01 0.01 0.01 0.02 0.03 0.07 0.05 0.05 0.00 0.10 0.01 0.04 0.08 0.00 0.00 0.00 0.00 0.00 0.00 0.01 0.05 0.13 0.17 0.10
0.00 0.00 0.00 0.00 0.00 0.00 0.00 0.01 0.02 0.02 0.06 0.07 0.06 0.06 0.03 0.01 0.00 0.00 0.00 0.02 0.09 0.09 0.00 0.17 0.08 0.03 0.09 0.02 0.01 0.10 0.11 0.06 0.03 0.01 0.11 0.23 0.17 0.21
0.01 0.01 0.01 0.01 0.01 0.01 0.02 0.03 0.02 0.04 0.08 0.08 0.04 0.03 0.03 0.02 0.00 0.00 0.00 0.00 0.02 0.08 0.02 0.08 0.15 0.07 0.10 0.05 0.07 0.08 0.06 0.07 0.04 0.05 0.18 0.29 0.27 0.35
0.01 0.01 0.01 0.02 0.03 0.04 0.03 0.02 0.03 0.10 0.11 0.12 0.10 0.06 0.04 0.04 0.05 0.05 0.03 0.01 0.01 0.00 0.01 0.02 0.04 0.03 0.07 0.07 0.03 0.01 0.02 0.02 0.09 0.11 0.35 0.47 0.48 0.60
0.02 0.02 0.03 0.05 0.06 0.07 0.06 0.08 0.11 0.11 0.12 0.12 0.10 0.08 0.09 0.09 0.06 0.03 0.04 0.03 0.04 0.01 0.02 0.00 0.01 0.02 0.02 0.02 0.02 0.02 0.00 0.02 0.03 0.07 0.30 0.70 0.82 1.02
0.10 0.14 0.13 0.12 0.11 0.10 0.09 0.09 0.11 0.12 0.13 0.09 0.10 0.10 0.08 0.06 0.04 0.02 0.02 0.02 0.03 0.00 0.02 0.03 0.03 0.00 0.00 0.01 0.02 0.01 0.02 0.02 0.03 0.02 0.28 0.74 1.15 1.12
0.24 0.14 0.07 0.07 0.08 0.08 0.12 0.12 0.12 0.13 0.13 0.16 0.15 0.09 0.08 0.07 0.04 0.04 0.03 0.03 0.01 0.00 0.00 0.00 0.02 0.02 0.01 0.01 0.03 0.03 0.03 0.02 0.01 0.00 0.17 0.42 0.63 0.83
0.24 0.11 0.10 0.11 0.12 0.13 0.15 0.16 0.16 0.15 0.16 0.16 0.12 0.07 0.07 0.08 0.08 0.07 0.05 0.04 0.02 0.00 0.00 0.01 0.01 0.02 0.04 0.06 0.05 0.03 0.03 0.01 0.01 0.01 0.03 0.11 0.38 0.51
0.12 0.09 0.08 0.07 0.07 0.09 0.10 0.12 0.12 0.12 0.16 0.15 0.14 0.09 0.07 0.06 0.08 0.06 0.04 0.04 0.02 0.01 0.00 0.00 0.00 0.01 0.04 0.06 0.10 0.04 0.03 0.06 0.05 0.02 0.01 0.01 0.20 0.14
0.04 0.05 0.05 0.08 0.10 0.12 0.14 0.16 0.17 0.17 0.18 0.19 0.16 0.12 0.09 0.08 0.07 0.05 0.05 0.04 0.03 0.02 0.00 0.00 0.00 0.02 0.05 0.08 0.11 0.11 0.12 0.12 0.09 0.04 0.05 0.01 0.09 0.07
0.08 0.10 0.09 0.11 0.13 0.16 0.15 0.15 0.15 0.14 0.16 0.18 0.17 0.15 0.11 0.10 0.08 0.06 0.06 0.06 0.03 0.01 0.00 0.00 0.00 0.02 0.09 0.13 0.11 0.12 0.15 0.13 0.03 0.03 0.08 0.04 0.02 0.03
0.14 0.15 0.13 0.13 0.12 0.12 0.13 0.14 0.14 0.12 0.14 0.16 0.16 0.15 0.15 0.12 0.08 0.08 0.08 0.06 0.04 0.01 0.00 0.00 0.00 0.00 0.04 0.09 0.13 0.13 0.08 0.06 0.07 0.06 0.04 0.03 0.02 0.02

GFSNE_prec_precacc24_051.txt.gz
Total_Precipitation_Accumulation
0.04 0.02 0.00 0.00 0.00 0.00 0.00 0.01 0.06 0.03 0.00 0.00 0.00 0.00 0.00 0.00 0.00 0.00 0.00 0.00 0.00 0.00 0.00 0.00 0.00 0.00 0.00 0.00 0.00 0.00 0.00 0.00 0.01 0.01 0.02 0.03 0.03 0.05
0.01 0.01 0.01 0.01 0.01 0.00 0.00 0.00 0.01 0.02 0.02 0.00 0.00 0.00 0.00 0.00 0.00 0.00 0.00 0.00 0.00 0.00 0.00 0.00 0.00 0.00 0.00 0.00 0.00 0.00 0.01 0.01 0.01 0.01 0.01 0.02 0.05 0.08
0.03 0.05 0.04 0.03 0.01 0.00 0.00 0.00 0.00 0.00 0.00 0.00 0.00 0.00 0.00 0.00 0.00 0.00 0.00 0.00 0.00 0.00 0.00 0.00 0.00 0.00 0.00 0.00 0.00 0.00 0.01 0.01 0.02 0.03 0.03 0.04 0.06 0.09
0.20 0.11 0.03 0.00 0.00 0.00 0.00 0.00 0.00 0.00 0.00 0.00 0.00 0.00 0.00 0.00 0.00 0.00 0.00 0.00 0.00 0.00 0.00 0.00 0.00 0.00 0.00 0.00 0.01 0.00 0.00 0.01 0.01 0.01 0.02 0.02 0.03 0.04
0.05 0.01 0.00 0.00 0.00 0.00 0.00 0.00 0.00 0.00 0.00 0.00 0.00 0.00 0.00 0.00 0.00 0.00 0.00 0.00 0.00 0.00 0.00 0.00 0.00 0.00 0.00 0.00 0.00 0.00 0.00 0.01 0.01 0.01 0.01 0.01 0.02 0.02
0.00 0.00 0.00 0.00 0.00 0.00 0.00 0.00 0.00 0.00 0.00 0.00 0.00 0.00 0.00 0.00 0.00 0.00 0.00 0.00 0.00 0.00 0.00 0.00 0.00 0.00 0.00 0.00 0.00 0.00 0.00 0.01 0.02 0.02 0.02 0.02 0.02 0.01
0.00 0.00 0.00 0.00 0.00 0.00 0.00 0.00 0.00 0.00 0.00 0.00 0.00 0.00 0.00 0.00 0.00 0.00 0.01 0.00 0.00 0.00 0.00 0.00 0.00 0.00 0.00 0.00 0.00 0.01 0.01 0.01 0.01 0.01 0.03 0.03 0.03 0.02
0.00 0.00 0.00 0.00 0.00 0.00 0.00 0.00 0.00 0.00 0.00 0.00 0.00 0.00 0.00 0.00 0.01 0.02 0.01 0.01 0.02 0.00 0.00 0.00 0.00 0.00 0.00 0.00 0.00 0.00 0.01 0.02 0.00 0.00 0.01 0.02 0.02 0.02
0.00 0.00 0.00 0.00 0.00 0.00 0.00 0.00 0.00 0.00 0.00 0.00 0.01 0.00 0.01 0.01 0.04 0.03 0.02 0.03 0.03 0.00 0.00 0.00 0.00 0.00 0.00 0.00 0.00 0.00 0.00 0.01 0.01 0.01 0.01 0.01 0.00 0.00
0.00 0.00 0.00 0.00 0.00 0.00 0.00 0.00 0.00 0.00 0.00 0.01 0.01 0.00 0.01 0.01 0.03 0.03 0.06 0.05 0.03 0.01 0.00 0.01 0.00 0.00 0.00 0.00 0.00 0.00 0.00 0.00 0.00 0.00 0.00 0.00 0.01 0.01
0.00 0.00 0.00 0.00 0.00 0.00 0.00 0.00 0.00 0.01 0.02 0.02 0.02 0.02 0.01 0.01 0.01 0.03 0.02 0.04 0.03 0.00 0.00 0.02 0.00 0.00 0.00 0.00 0.00 0.00 0.00 0.00 0.00 0.00 0.00 0.01 0.02 0.02
0.00 0.00 0.00 0.00 0.00 0.00 0.00 0.00 0.02 0.01 0.03 0.05 0.06 0.04 0.02 0.02 0.02 0.03 0.05 0.11 0.09 0.07 0.01 0.10 0.01 0.03 0.06 0.00 0.00 0.00 0.00 0.00 0.00 0.01 0.01 0.04 0.10 0.05
0.00 0.00 0.00 0.00 0.00 0.00 0.00 0.01 0.02 0.02 0.06 0.07 0.06 0.06 0.04 0.02 0.01 0.01 0.01 0.02 0.05 0.06 0.01 0.17 0.08 0.03 0.08 0.02 0.00 0.01 0.09 0.06 0.03 0.01 0.03 0.08 0.11 0.12
0.01 0.01 0.01 0.01 0.01 0.01 0.02 0.03 0.02 0.04 0.08 0.08 0.04 0.03 0.03 0.03 0.01 0.01 0.01 0.00 0.00 0.02 0.01 0.08 0.15 0.07 0.10 0.05 0.01 0.01 0.05 0.06 0.03 0.04 0.10 0.15 0.20 0.28
0.01 0.01 0.01 0.02 0.03 0.04 0.03 0.02 0.03 0.11 0.12 0.13 0.10 0.06 0.04 0.05 0.08 0.11 0.12 0.08 0.02 0.00 0.01 0.02 0.04 0.03 0.07 0.07 0.03 0.01 0.01 0.01 0.04 0.10 0.25 0.33 0.39 0.50
0.02 0.02 0.03 0.05 0.06 0.07 0.06 0.08 0.11 0.11 0.13 0.14 0.11 0.08 0.09 0.10 0.08 0.04 0.06 0.06 0.09 0.03 0.00 0.00 0.01 0.02 0.02 0.02 0.02 0.02 0.00 0.02 0.02 0.05 0.23 0.52 0.67 0.86
0.10 0.14 0.13 0.12 0.11 0.10 0.09 0.09 0.11 0.12 0.13 0.09 0.11 0.12 0.13 0.10 0.05 0.02 0.03 0.04 0.05 0.01 0.00 0.00 0.00 0.00 0.00 0.01 0.02 0.01 0.02 0.02 0.03 0.01 0.27 0.68 1.06 1.03
0.24 0.14 0.07 0.07 0.08 0.08 0.12 0.12 0.12 0.13 0.13 0.16 0.19 0.16 0.13 0.10 0.06 0.05 0.05 0.04 0.02 0.00 0.00 0.00 0.01 0.00 0.00 0.01 0.03 0.03 0.02 0.02 0.01 0.00 0.17 0.42 0.62 0.84
0.24 0.11 0.10 0.11 0.12 0.13 0.15 0.16 0.16 0.16 0.16 0.16 0.13 0.10 0.10 0.11 0.10 0.08 0.07 0.05 0.04 0.01 0.00 0.00 0.00 0.01 0.02 0.03 0.03 0.02 0.03 0.01 0.01 0.01 0.03 0.11 0.39 0.53
0.12 0.09 0.08 0.07 0.07 0.09 0.10 0.12 0.12 0.12 0.16 0.15 0.15 0.14 0.14 0.14 0.13 0.09 0.06 0.06 0.03 0.01 0.01 0.00 0.00 0.01 0.04 0.04 0.05 0.03 0.03 0.05 0.04 0.02 0.01 0.01 0.22 0.17
0.04 0.05 0.05 0.08 0.10 0.12 0.14 0.16 0.17 0.17 0.18 0.20 0.17 0.16 0.15 0.16 0.14 0.10 0.08 0.06 0.06 0.05 0.02 0.00 0.00 0.02 0.05 0.07 0.08 0.09 0.12 0.10 0.07 0.04 0.02 0.00 0.09 0.07
0.08 0.10 0.09 0.11 0.13 0.15 0.15 0.15 0.15 0.14 0.16 0.18 0.18 0.18 0.16 0.16 0.15 0.12 0.10 0.09 0.05 0.03 0.02 0.01 0.00 0.01 0.06 0.10 0.07 0.09 0.15 0.14 0.03 0.03 0.05 0.03 0.01 0.03
0.14 0.15 0.13 0.13 0.12 0.12 0.13 0.14 0.14 0.12 0.14 0.16 0.16 0.16 0.18 0.18 0.13 0.11 0.10 0.08 0.06 0.04 0.03 0.02 0.00 0.00 0.02 0.08 0.11 0.09 0.08 0.06 0.08 0.07 0.04 0.03 0.02 0.02